This demonstration page uses our WeatherBlox Daily Observations layout. Learn more.

Left ArrowRight Arrow

34.02893, -84.19858

Hourly Observations for October 31, 2019

Temp ( °F °C ) Dew Point ( °F °C ) Humidity (%) Winds ( mph kmh ) Pressure ( in mb ) Visibility ( mi km ) Precip ( " mm )
12:23 am 00:23 Cloudy 71 21.7 70 21.1 96 96 S 8 13 29.95 1014 10 16 0.00 0.00
12:49 am 00:49 Cloudy 72 22 70 21 94 94 S 7 11 29.95 1014 10 16 0.00 0.00
1:28 am 01:28 Mostly Cloudy 71 21.7 70 21.1 96 96 SSW 8 13 29.94 1014 10 16 0.00 0.00
1:53 am 01:53 Cloudy 71 21.7 70 21.1 96 96 S 8 13 29.93 1014 10 16 0.00 0.00
2:15 am 02:15 Cloudy 71 21.7 70 21.1 96 96 S 7 11 29.93 1013 10 16 0.00 0.00
2:53 am 02:53 Cloudy 71 21.7 70 21.1 96 96 S 8 13 29.91 1013 10 16 0.00 0.00
3:14 am 03:14 Cloudy 71 21.7 70 21.1 96 96 S 7 11 29.90 1012 10 16 0.00 0.00
3:53 am 03:53 Cloudy 71 21.7 70 21.1 96 96 SSE 6 9 29.88 1012 10 16 0.00 0.00
4:13 am 04:13 Cloudy 71 21.7 70 21.1 96 96 SSE 6 9 29.88 1012 10 16 0.00 0.00
4:22 am 04:22 Cloudy 71 21.7 70 21.1 96 96 S 5 7 29.88 1012 10 16 0.00 0.00
4:53 am 04:53 Cloudy 71 21.7 70 21.1 96 96 S 8 13 29.87 1012 10 16 0.00 0.00
5:26 am 05:26 Cloudy 71 21.7 70 21.1 96 96 S 10 17 29.88 1012 10 16 0.00 0.00
5:34 am 05:34 Cloudy with Light Rain 71 21.7 70 21.1 96 96 S 12 19 29.88 1012 10 16 0.00 0.00
5:53 am 05:53 Cloudy 71 21.7 69 20.6 94 94 SSW 12 19 29.88 1012 10 16 0.00 0.00
6:14 am 06:14 Cloudy 71 21.7 69 20.6 94 94 S 9 15 29.87 1011 10 16 0.00 0.00
6:46 am 06:46 Cloudy 71 21.7 69 20.6 94 94 S 8 13 29.87 1011 10 16 0.00 0.00
6:53 am 06:53 Cloudy 71 21.7 69 20.6 94 94 S 8 13 29.87 1011 8 13 0.00 0.00
7:04 am 07:04 Cloudy 71 21.7 69 20.6 94 94 S 8 13 29.88 1012 10 16 0.00 0.00
7:11 am 07:11 Cloudy with Light Rain 70 21.1 69 20.6 97 97 SSW 10 17 29.87 1012 9 14 0.00 0.00
7:53 am 07:53 Cloudy 71 21.7 69 20.6 94 94 S 8 13 29.87 1012 10 16 0.01 0.25
8:53 am 08:53 Cloudy 71 21.7 69 20.6 94 94 S 10 17 29.87 1011 10 16 0.00 0.00
9:53 am 09:53 Cloudy with Light Rain 71 21.7 70 21.1 96 96 S 12 19 29.87 1011 8 13 0.00 0.00
10:53 am 10:53 Cloudy 72 22.2 69 20.6 91 91 SSW 14 22 29.85 1011 10 16 0.00 0.00
10:58 am 10:58 Cloudy 73 22.8 70 21.1 90 90 S 13 20 29.85 1011 10 16 0.00 0.00
11:53 am 11:53 Cloudy 74 23.3 69 20.6 85 85 S 14 22 29.83 1010 10 16 0.00 0.00
12:28 pm 12:28 Cloudy 75 23.9 69 20.6 82 82 S 17 28 29.82 1010 10 16 0.00 0.00
12:53 pm 12:53 Cloudy with Light Rain 73 22.8 69 20.6 87 87 SSW 18 30 29.82 1010 6 10 0.01 0.25
1:00 pm 13:00 Cloudy 73 22.8 69 20.6 87 87 SSW 16 26 29.82 1010 10 16 0.00 0.00
1:10 pm 13:10 Cloudy with Heavy Rain 65 18.3 61 16.1 87 87 WNW 22 35 29.88 1012 2 3 0.07 1.78
1:14 pm 13:14 Cloudy with Heavy Rain 63 17.2 60 15.6 90 90 WNW 16 26 29.87 1012 1 2 0.12 3.05
1:27 pm 13:27 Cloudy with Heavy Rain 59 15 58 14.4 96 96 WNW 16 26 29.92 1013 2 3 0.24 6.10
1:53 pm 13:53 Cloudy with Heavy Rain 57 13.9 56 13.3 96 96 WNW 16 26 29.89 1012 3 5 0.39 9.91
2:00 pm 14:00 Cloudy with Light Rain 57 13.9 56 13.3 96 96 W 8 13 29.91 1013 10 16 0.00 0.00
2:53 pm 14:53 Cloudy with Light Rain 54 12.2 52 11.1 93 93 WNW 16 26 29.91 1013 8 13 0.01 0.25
3:53 pm 15:53 Cloudy 52 11.1 49 9.4 89 89 W 18 30 29.93 1014 10 16 0.03 0.76
4:00 pm 16:00 Cloudy 51 10.6 48 8.9 89 89 W 14 22 29.97 1015 10 16 0.00 0.00
4:02 pm 16:02 Cloudy 50 10 47 8.3 89 89 W 15 24 29.97 1015 10 16 0.00 0.00
4:53 pm 16:53 Cloudy 49 9.4 44 6.7 83 83 WNW 16 26 29.98 1015 10 16 0.00 0.00
5:00 pm 17:00 Cloudy 48 8.9 44 6.7 86 86 W 14 22 30.02 1016 10 16 0.00 0.00
5:53 pm 17:53 Mostly Cloudy 48 8.9 42 5.6 80 80 WNW 16 26 30.03 1017 10 16 0.00 0.00
6:53 pm 18:53 Cloudy 46 7.8 38 3.3 73 73 WNW 16 26 30.08 1019 10 16 0.00 0.00
7:33 pm 19:33 Mostly Cloudy 44 6.7 37 2.8 76 76 WNW 14 22 30.12 1020 10 16 0.00 0.00
7:44 pm 19:44 Mostly Cloudy 44 6.7 36 2.2 73 73 NW 20 31 30.13 1020 10 16 0.00 0.00
7:53 pm 19:53 Mostly Cloudy 44 6.7 36 2.2 73 73 NW 17 28 30.10 1019 10 16 0.00 0.00
8:12 pm 20:12 Mostly Cloudy 43 6.1 36 2.2 76 76 NW 16 26 30.15 1021 10 16 0.00 0.00
9:12 pm 21:12 Mostly Cloudy 42 5.6 35 1.7 76 76 NW 17 28 30.17 1022 10 16 0.00 0.00
9:53 pm 21:53 Mostly Cloudy 39 3.9 31 -0.6 73 73 NW 17 28 30.16 1022 10 16 0.00 0.00
10:10 pm 22:10 Partly Cloudy 38 3.3 30 -1.1 73 73 NW 22 35 30.21 1023 10 16 0.00 0.00
10:38 pm 22:38 Mostly Cloudy 38 3.3 30 -1.1 73 73 NW 16 26 30.21 1023 10 16 0.00 0.00
10:53 pm 22:53 Mostly Cloudy 38 3.3 30 -1.1 73 73 NW 16 26 30.17 1022 10 16 0.00 0.00
11:49 pm 23:49 Partly Cloudy 37 3 28 -2 70 70 NW 13 20 30.23 1024 10 16 0.00 0.00
11:53 pm 23:53 Mostly Cloudy 37 2.8 29 -1.7 73 73 NW 14 22 30.19 1022 10 16 0.00 0.00

Powered by AerisWeather